CAPE
0 0 0 0 0 0 0 0 0 0 0 0 0 0 0 0 0 0 0 0 0 0 0 0 0 0 0 0 0 0 0 0
0 0 0 0 0 0 0 0 0 0 0 0 0 0 0 0 0 0 0 0 0 0 0 0 0 0 0 0 0 0 0 0
0 0 0 0 0 0 0 0 0 0 0 0 0 0 0 0 0 0 0 0 0 0 0 0 0 0 0 0 0 0 0 0
0 0 0 0 0 0 0 0 0 0 0 0 0 0 0 0 0 0 0 0 0 0 0 0 0 0 0 0 0 0 0 0
2 0 0 0 0 0 0 0 0 0 0 0 0 0 0 0 0 0 0 0 0 0 0 0 0 0 0 0 0 0 0 0
12 0 0 0 0 0 0 0 0 0 0 0 0 0 0 0 0 0 0 0 0 0 0 0 0 0 0 0 0 0 0 0
4 0 0 0 0 0 0 0 0 0 0 0 0 0 0 0 0 0 0 0 0 0 0 0 0 0 0 0 0 0 0 0
89 29 0 0 0 0 0 0 0 0 0 0 0 0 0 0 0 0 0 0 0 0 0 0 0 0 0 0 0 0 0 0
87 78 0 0 0 0 0 0 0 0 0 0 0 0 0 0 0 0 0 0 0 0 0 0 0 0 0 0 0 0 0 0
67 21 0 0 0 0 0 0 0 0 0 0 0 0 0 0 0 0 0 0 0 0 0 0 0 0 0 0 0 0 0 0
17 3 0 0 0 0 0 0 0 0 0 0 0 0 0 0 0 0 0 0 0 0 0 0 0 0 0 0 0 0 0 0
0 14 6 0 0 0 0 0 0 0 0 0 0 0 0 0 0 0 0 0 0 0 0 0 0 0 0 0 0 0 0 0
0 1 21 0 0 0 0 0 0 0 0 0 0 0 0 0 0 0 0 0 0 0 0 0 0 0 0 0 0 0 0 0
0 0 0 2 0 0 0 0 0 0 0 0 0 0 0 0 0 0 0 0 0 0 0 0 0 0 0 0 0 0 0 0
0 0 0 1 1 0 0 0 0 0 0 0 0 0 0 0 0 0 0 0 0 0 0 0 0 0 0 0 0 0 0 0
0 0 0 0 0 1 0 0 0 0 0 0 0 0 0 0 0 0 0 0 0 0 0 0 0 0 0 0 0 0 0 0
0 0 0 15 43 59 11 0 0 0 0 0 0 0 0 0 0 0 0 0 0 0 0 0 0 0 0 0 0 0 0 0
0 0 0 1 32 84 72 9 0 0 0 0 0 0 0 0 0 0 0 0 0 0 0 0 0 0 0 0 0 0 0 0
0 0 0 0 0 27 36 5 0 0 0 0 0 0 0 0 0 0 0 0 0 0 0 0 0 0 0 0 0 0 0 0
CIN
0 0 0 0 0 0 0 0 0 0 0 0 0 0 0 0 0 0 0 0 0 0 0 0 0 0 0 0 0 0 0 0
0 0 0 0 0 0 0 0 0 0 0 0 0 0 0 0 0 0 0 0 0 0 0 0 0 0 0 0 0 0 0 0
0 0 0 0 0 0 0 0 0 0 0 0 0 0 0 0 0 0 0 0 0 0 0 0 0 0 0 0 0 0 0 0
0 0 0 0 0 0 0 0 0 0 0 0 0 0 0 0 0 0 0 0 0 0 0 0 0 0 0 0 0 0 0 0
-273 0 0 0 0 0 0 0 0 0 0 0 0 0 0 0 0 0 0 0 0 0 0 0 0 0 0 0 0 0 0 0
-259 0 0 0 0 0 0 0 0 0 0 0 0 0 0 0 0 0 0 0 0 0 0 0 0 0 0 0 0 0 0 0
-286 0 0 0 0 0 0 0 0 0 0 0 0 0 0 0 0 0 0 0 0 0 0 0 0 0 0 0 0 0 0 0
-380 -320 0 0 0 0 0 0 0 0 0 0 0 0 0 0 0 0 0 0 0 0 0 0 0 0 0 0 0 0 0 0
-341 -412 0 0 0 0 0 0 0 0 0 0 0 0 0 0 0 0 0 0 0 0 0 0 0 0 0 0 0 0 0 0
-249 -429 0 0 0 0 0 0 0 0 0 0 0 0 0 0 0 0 0 0 0 0 0 0 0 0 0 0 0 0 0 0
-268 -270 -12 0 0 0 0 0 0 0 0 0 0 0 0 0 0 0 0 0 0 0 0 0 0 0 0 0 0 0 0 0
0 -324 -324 0 0 0 0 0 0 0 0 0 0 0 0 0 0 0 0 0 0 0 0 0 0 0 0 0 0 0 0 0
0 -100 -402 0 0 0 0 0 0 0 0 0 0 0 0 0 0 0 0 0 0 0 0 0 0 0 0 0 0 0 0 0
0 0 0 -288 0 0 0 0 0 0 0 0 0 0 0 0 0 0 0 0 0 0 0 0 0 0 0 0 0 0 0 0
0 0 0 -32 -193 0 0 0 0 0 0 0 0 0 0 0 0 0 0 0 0 0 0 0 0 0 0 0 0 0 0 0
0 0 0 0 0 -133 0 0 0 0 0 0 0 0 0 0 0 0 0 0 0 0 0 0 0 0 0 0 0 0 0 0
0 0 0 -292 -327 -402 -528 0 0 0 0 0 0 0 0 0 0 0 0 0 0 0 0 0 0 0 0 0 0 0 0 0
0 0 0 -65 -439 -442 -439 -613 0 0 0 0 0 0 0 0 0 0 0 0 0 0 0 0 0 0 0 0 0 0 0 0
0 0 0 0 0 -582 -598 -668 0 0 0 0 0 0 0 0 0 0 0 0 0 0 0 0 0 0 0 0 0 0 0 0
Wind_Speed
10 14 19 19 20 17 13 12 14 12 10 9 8 8 7 6 6 6 7 7 8 10 12 14 15 18 19 21 22 22 22 22
10 13 19 19 20 18 15 14 12 10 7 7 8 8 8 6 6 6 6 7 8 9 11 13 15 16 17 19 21 21 21 21
11 12 13 18 18 17 16 14 11 9 7 6 6 8 6 6 6 5 5 6 7 9 10 12 14 16 17 18 18 20 21 22
14 13 14 15 17 20 19 16 12 5 4 4 3 4 4 4 4 5 6 7 7 8 9 11 13 15 17 18 18 19 20 23
14 14 14 16 17 18 18 15 13 8 6 5 8 7 4 2 5 5 6 5 6 7 8 10 12 15 17 18 19 20 20 21
16 13 14 15 15 17 19 15 12 10 10 8 7 6 2 3 6 6 5 5 5 6 7 9 12 14 16 17 19 21 22 21
14 12 11 13 14 15 17 16 15 12 14 10 7 10 8 5 5 5 4 4 4 5 6 8 10 12 14 16 19 20 22 23
13 9 9 11 14 16 16 16 15 14 15 13 11 12 11 10 7 5 4 4 3 3 5 6 8 10 13 15 17 19 21 23
12 9 8 8 12 14 15 17 16 15 15 17 16 12 11 8 6 6 4 3 2 3 4 5 7 9 11 12 15 18 20 21
12 8 6 6 9 14 16 15 15 15 16 17 16 12 12 9 7 6 5 3 3 3 3 4 5 6 8 11 14 16 18 20
9 7 4 4 6 10 14 14 15 15 15 15 13 12 11 9 8 7 7 4 2 3 2 3 4 6 7 9 12 14 17 19
5 3 1 2 4 7 12 13 13 12 14 14 13 11 11 11 11 10 8 5 4 2 1 3 4 5 5 8 11 13 15 17
2 4 2 1 2 4 7 8 11 12 12 13 12 11 11 12 12 11 9 8 6 6 4 4 4 3 5 6 9 11 13 15
6 6 2 1 1 1 3 5 7 8 9 10 10 10 11 13 12 11 11 9 8 10 6 5 4 4 4 6 7 10 11 13
10 10 6 4 3 2 3 3 4 6 7 9 9 10 10 10 11 12 12 11 11 11 8 6 5 4 4 5 7 10 11 12
15 11 11 11 9 9 8 7 6 5 7 8 9 9 9 9 10 11 11 11 12 11 8 7 6 5 5 4 6 8 9 11
25 22 17 12 13 12 11 10 10 8 8 9 9 9 9 8 9 9 10 10 10 8 8 7 6 6 4 4 6 6 8 8
27 24 21 16 13 13 12 11 11 10 9 9 8 8 10 10 9 8 9 9 8 8 8 7 7 5 4 3 5 7 7 8
29 28 28 24 18 15 13 12 11 9 8 8 8 9 9 9 9 9 9 9 9 8 7 7 6 5 4 4 4 7 8 9
Wind_Direction
127 135 146 148 151 147 134 130 134 128 118 107 88 87 79 73 73 70 66 56 54 46 31 28 26 22 23 17 14 14 14 20
113 127 153 154 160 156 148 143 140 133 118 112 111 115 106 82 69 79 75 68 64 43 35 30 27 26 24 22 18 20 15 12
132 129 146 162 162 162 158 156 150 143 134 125 106 118 103 95 74 62 67 74 69 57 48 38 34 29 24 21 20 16 3 348
153 146 157 163 165 168 169 162 158 152 135 105 71 63 41 57 71 46 82 83 73 59 45 38 34 30 25 23 19 16 8 356
156 156 160 165 167 167 167 164 163 158 151 146 147 145 129 73 107 86 82 75 62 54 52 43 29 22 20 21 18 14 12 3
165 157 161 160 161 167 169 167 166 162 164 164 160 159 141 93 115 107 78 76 79 73 53 37 28 26 22 19 13 10 9 5
169 158 152 162 160 166 169 171 173 168 168 174 189 171 161 145 130 122 93 78 63 63 49 38 27 26 23 17 11 9 10 6
168 154 154 157 167 167 170 176 180 177 181 185 185 175 171 165 159 147 122 94 63 74 57 38 26 32 24 19 12 10 8 6
172 168 165 166 170 171 174 180 184 183 184 185 178 180 179 181 175 162 152 135 105 91 58 45 29 29 25 23 15 10 8 6
173 160 161 167 173 179 182 182 185 186 185 175 180 184 185 190 189 182 175 154 134 112 87 50 27 27 23 17 11 10 8 4
161 162 150 153 170 177 181 184 187 186 183 186 189 189 198 204 200 197 189 201 183 153 81 48 21 19 16 10 7 10 7 4
169 164 59 94 141 166 180 185 190 193 193 192 196 199 201 206 206 207 207 210 226 236 253 347 350 5 13 4 5 8 6 5
291 340 16 70 174 188 190 197 200 201 201 200 205 211 208 209 214 222 229 222 252 254 251 301 329 346 352 354 356 1 2 3
289 310 277 206 343 201 199 207 215 219 212 213 216 220 218 219 222 227 233 231 242 267 253 257 287 306 329 339 350 357 360 1
306 298 275 261 305 291 279 277 258 254 242 232 228 226 231 230 227 224 228 232 254 262 255 262 275 290 308 326 344 349 352 357
310 295 301 302 305 313 311 313 311 289 268 256 250 244 241 242 238 235 237 236 253 261 256 267 274 280 289 309 332 340 346 351
313 305 299 291 292 300 306 303 311 308 293 280 278 264 253 249 251 246 246 242 246 248 246 251 260 281 277 293 323 332 342 346
315 316 315 306 295 294 296 300 308 305 301 296 284 272 264 264 261 250 242 233 237 244 248 247 252 272 243 273 299 322 332 341
315 315 314 314 310 301 294 296 297 302 296 299 295 285 276 268 257 249 242 236 237 244 249 248 249 257 250 271 287 316 327 336